Weather History for KHNZ - March, 2013

Change the Weather History Date:

Monday, March 25, 2013

  Actual Average (KRDU) Record (KRDU)
Temperature  
Mean Temperature 38 °F 54 °F  
Max Temperature 45 °F 66 °F 87 °F (1939)
Min Temperature 32 °F 42 °F 21 °F (1940)
Degree Days  
Heating Degree Days 26 11  
Month to date heating degree days 363  
Since 1 July heating degree days 2935  
Cooling Degree Days 0 0  
Month to date cooling degree days 0  
Year to date cooling degree days 1  
Moisture  
Dew Point 28 °F    
Average Humidity 71    
Maximum Humidity 99    
Minimum Humidity 40    
Precipitation  
Precipitation 0.02 in 0.13 in 1.25 in (1958)
Month to date precipitation 3.32  
Year to date precipitation 10.05  
Snow  
Snow 0.00 in 0.00 in 2.90 in (1974)
Month to date snowfall 0.5  
Since 1 July snowfall 6.0  
Snow Depth -    
Sea Level Pressure  
Sea Level Pressure 29.61 in    
Wind  
Wind Speed 6 mph (WNW)    
Max Wind Speed 17 mph    
Max Gust Speed 29 mph    
Visibility 9 miles    
Events Rain , Snow    
T = Trace of Precipitation, MM = Missing Value Source: NWS Daily Summary

Daily Weather History Graph

Daily Weather History Graph

Search for Another Location

Airport or City:

Trip Planner

Search our weather history database for the weather conditions in past years. The results will help you decide how hot, cold, wet, or windy it might be!

Date:

Astronomy

Mar. 25, 2013 Rise Set
Actual Time 7:10 AM EDT 7:30 PM EDT
Civil Twilight 6:44 AM EDT 7:56 PM EDT
Nautical Twilight 6:14 AM EDT 8:26 PM EDT
Astronomical Twilight 5:43 AM EDT 8:57 PM EDT
Moon 6:01 PM EDT (3/25) 5:50 AM EDT (3/25)
Length of Visible Light 13h 11m
Length of Day
12h 20m
Waxing Gibbous, 96% of the Moon is Illuminated
Mar 25
Waxing Gibbous
Mar 27
Full
Apr 3
Last Quarter
Apr 10
New
Apr 18
First Quarter

Hourly Weather History & Observations

Time (EDT) Temp. Windchill Dew Point Humidity Pressure Visibility Wind Dir Wind Speed Gust Speed Precip Events Conditions
12:15 AM 33.4 °F 27.3 °F 32.4 °F 96% 29.58 in 3.0 mi ENE 6.9 mph - N/A Snow Light Snow
12:35 AM 33.3 °F 28.9 °F 32.4 °F 96% 29.58 in 7.0 mi NE 4.6 mph - N/A   Overcast
12:55 AM 33.1 °F 28.7 °F 32.0 °F 96% 29.58 in 5.0 mi North 4.6 mph - 0.01 in   Drizzle
1:15 AM 33.1 °F - 32.0 °F 96% 29.58 in 7.0 mi Calm Calm - N/A   Overcast
1:35 AM 33.1 °F - 32.0 °F 96% 29.58 in 5.0 mi Calm Calm - N/A   Drizzle
1:55 AM 33.1 °F - 32.0 °F 96% 29.58 in 2.5 mi Calm Calm - N/A   Drizzle
2:15 AM 33.1 °F - 32.0 °F 96% 29.57 in 3.0 mi Calm Calm - N/A Rain Light Rain
2:55 AM 33.1 °F - 32.2 °F 96% 29.57 in 2.5 mi Calm Calm - N/A   Overcast
3:15 AM 33.1 °F 28.7 °F 32.2 °F 96% 29.56 in 2.5 mi NNW 4.6 mph - N/A   Light Drizzle
3:35 AM 32.9 °F 29.8 °F 32.0 °F 96% 29.56 in 2.0 mi NW 3.5 mph - N/A Snow Light Snow
3:55 AM 32.9 °F 28.5 °F 32.0 °F 96% 29.55 in 3.0 mi North 4.6 mph - N/A Rain Rain
4:15 AM 32.9 °F - 32.0 °F 96% 29.55 in 4.0 mi Calm Calm - N/A   Overcast
4:35 AM 32.9 °F 29.8 °F 32.0 °F 96% 29.56 in 10.0 mi WNW 3.5 mph - N/A   Overcast
4:55 AM 32.9 °F 29.8 °F 32.0 °F 96% 29.56 in 10.0 mi NNW 3.5 mph - N/A   Overcast
5:15 AM 32.9 °F 28.5 °F 32.0 °F 96% 29.56 in 5.0 mi NNW 4.6 mph - N/A   Overcast
5:35 AM 32.9 °F 28.5 °F 32.0 °F 96% 29.56 in 4.0 mi WNW 4.6 mph - N/A   Overcast
5:55 AM 32.9 °F 28.5 °F 32.0 °F 96% 29.57 in 7.0 mi WNW 4.6 mph - N/A   Overcast
6:15 AM 32.5 °F 28.1 °F 32.0 °F 98% 29.57 in 10.0 mi NW 4.6 mph - 0.01 in   Overcast
6:35 AM 32.5 °F 29.3 °F 32.0 °F 98% 29.56 in 10.0 mi NW 3.5 mph - 0.01 in   Overcast
6:55 AM 32.5 °F 29.3 °F 32.0 °F 98% 29.55 in 10.0 mi West 3.5 mph - 0.01 in   Overcast
7:15 AM 32.4 °F - 32.0 °F 99% 29.56 in 10.0 mi Calm Calm - N/A   Overcast
7:35 AM 32.5 °F - 32.0 °F 98% 29.55 in 10.0 mi Calm Calm - N/A   Overcast
7:55 AM 32.9 °F - 32.0 °F 96% 29.55 in 10.0 mi Calm Calm - N/A   Overcast
8:15 AM 32.9 °F 29.8 °F 32.0 °F 96% 29.56 in 10.0 mi West 3.5 mph - N/A   Overcast
8:35 AM 33.3 °F - 32.0 °F 95% 29.56 in 10.0 mi Calm Calm - N/A   Overcast
8:55 AM 33.8 °F 30.8 °F 32.4 °F 94% 29.57 in 10.0 mi WSW 3.5 mph - N/A   Overcast
9:15 AM 34.5 °F 30.4 °F 32.9 °F 94% 29.57 in 10.0 mi West 4.6 mph - N/A   Overcast
9:55 AM 36.0 °F 30.3 °F 33.6 °F 91% 29.57 in 10.0 mi West 6.9 mph - N/A   Overcast
10:15 AM 36.9 °F 30.1 °F 34.0 °F 89% 29.56 in 10.0 mi West 9.2 mph - N/A   Overcast
10:35 AM 38.3 °F 33.2 °F 34.5 °F 86% 29.57 in 10.0 mi West 6.9 mph - N/A   Overcast
10:55 AM 38.8 °F 34.6 °F 34.9 °F 86% 29.56 in 10.0 mi WSW 5.8 mph - N/A   Overcast
11:15 AM 40.3 °F 35.5 °F 34.9 °F 81% 29.57 in 10.0 mi WSW 6.9 mph - N/A   Overcast
11:35 AM 41.2 °F 35.5 °F 34.3 °F 77% 29.58 in 10.0 mi West 9.2 mph - N/A   Overcast
11:55 AM 42.6 °F 36.3 °F 34.2 °F 72% 29.58 in 10.0 mi WSW 11.5 mph 17.3 mph N/A   Overcast
12:15 PM 41.9 °F 36.9 °F 31.8 °F 67% 29.58 in 10.0 mi West 8.1 mph 17.3 mph N/A   Overcast
12:35 PM 42.6 °F 37.8 °F 31.1 °F 64% 29.57 in 10.0 mi West 8.1 mph - N/A   Overcast
12:55 PM 43.2 °F 39.0 °F 30.6 °F 61% 29.57 in 10.0 mi West 6.9 mph - N/A   Overcast
1:15 PM 42.1 °F 37.1 °F 28.8 °F 59% 29.57 in 10.0 mi West 8.1 mph - N/A   Overcast
1:35 PM 43.5 °F 39.4 °F 31.1 °F 62% 29.57 in 10.0 mi WNW 6.9 mph - N/A   Overcast
1:55 PM 41.2 °F 35.5 °F 30.7 °F 66% 29.58 in 10.0 mi West 9.2 mph - N/A Rain Rain
2:15 PM 42.6 °F 36.8 °F 29.1 °F 59% 29.58 in 10.0 mi West 10.4 mph 17.3 mph N/A   Overcast
2:35 PM 41.4 °F 34.0 °F 28.8 °F 61% 29.58 in 10.0 mi West 13.8 mph 21.9 mph N/A   Overcast
2:55 PM 43.2 °F 36.6 °F 26.4 °F 52% 29.58 in 10.0 mi West 12.7 mph 23.0 mph N/A   Overcast
3:15 PM 44.8 °F 37.4 °F 23.9 °F 44% 29.57 in 10.0 mi West 17.3 mph 26.5 mph N/A   Overcast
3:35 PM 45.3 °F 39.0 °F 23.7 °F 43% 29.57 in 10.0 mi WSW 13.8 mph 20.7 mph N/A   Overcast
3:55 PM 45.3 °F 39.0 °F 23.0 °F 41% 29.57 in 10.0 mi WSW 13.8 mph 26.5 mph N/A   Mostly Cloudy
4:15 PM 43.7 °F 36.6 °F 23.0 °F 44% 29.58 in 10.0 mi West 15.0 mph 26.5 mph N/A   Overcast
4:35 PM 44.6 °F 37.2 °F 23.0 °F 43% 29.59 in 10.0 mi West 17.3 mph 28.8 mph N/A   Overcast
4:55 PM 45.7 °F 39.5 °F 24.6 °F 44% 29.60 in 10.0 mi West 13.8 mph 25.3 mph N/A   Scattered Clouds
5:15 PM 44.1 °F 38.1 °F 23.0 °F 43% 29.61 in 10.0 mi WNW 11.5 mph 20.7 mph N/A   Scattered Clouds
5:35 PM 44.2 °F 37.6 °F 21.7 °F 41% 29.61 in 10.0 mi West 13.8 mph 18.4 mph N/A   Mostly Cloudy
5:55 PM 43.9 °F 39.9 °F 21.6 °F 41% 29.62 in 10.0 mi West 6.9 mph 26.5 mph N/A   Overcast
6:15 PM 43.7 °F 37.3 °F 21.0 °F 41% 29.63 in 10.0 mi WNW 12.7 mph 21.9 mph N/A   Overcast
6:35 PM 43.7 °F 38.6 °F 20.8 °F 40% 29.64 in 10.0 mi WNW 9.2 mph 17.3 mph N/A   Overcast
6:55 PM 43.2 °F 37.9 °F 20.7 °F 41% 29.65 in 10.0 mi WNW 9.2 mph - N/A   Overcast
7:15 PM 42.8 °F 39.3 °F 20.8 °F 42% 29.66 in 10.0 mi WNW 5.8 mph - N/A   Overcast
7:35 PM 42.4 °F 39.6 °F 21.0 °F 43% 29.68 in 10.0 mi WNW 4.6 mph - N/A   Overcast
7:55 PM 41.9 °F 39.0 °F 22.1 °F 45% 29.69 in 10.0 mi WNW 4.6 mph - N/A   Overcast
8:15 PM 41.5 °F 37.8 °F 22.1 °F 46% 29.71 in 10.0 mi WNW 5.8 mph - N/A   Mostly Cloudy
8:35 PM 41.2 °F 38.2 °F 22.1 °F 47% 29.71 in 10.0 mi West 4.6 mph - N/A   Scattered Clouds
8:55 PM 40.6 °F 36.0 °F 22.3 °F 48% 29.72 in 10.0 mi WNW 6.9 mph - N/A   Clear
9:15 PM 40.1 °F 35.3 °F 22.1 °F 49% 29.73 in 10.0 mi WNW 6.9 mph - N/A   Clear
9:35 PM 39.4 °F 35.2 °F 21.9 °F 50% 29.74 in 10.0 mi West 5.8 mph - N/A   Clear
9:55 PM 39.4 °F 33.2 °F 21.9 °F 50% 29.75 in 10.0 mi West 9.2 mph - N/A   Scattered Clouds
10:15 PM 40.1 °F 33.6 °F 20.1 °F 45% 29.75 in 10.0 mi West 10.4 mph 19.6 mph N/A   Scattered Clouds
10:35 PM 39.6 °F 34.7 °F 20.5 °F 46% 29.76 in 10.0 mi West 6.9 mph - N/A   Scattered Clouds
10:55 PM 38.7 °F 35.2 °F 21.0 °F 49% 29.77 in 10.0 mi WNW 4.6 mph - N/A   Scattered Clouds
11:15 PM 37.9 °F 34.4 °F 21.4 °F 51% 29.77 in 10.0 mi West 4.6 mph - N/A   Clear
11:35 PM 37.8 °F 31.3 °F 21.9 °F 53% 29.78 in 10.0 mi WNW 9.2 mph - N/A   Scattered Clouds
11:55 PM 38.3 °F 33.9 °F 22.3 °F 53% 29.78 in 10.0 mi West 5.8 mph - N/A   Mostly Cloudy